Flag for Germany Weather past 2 weeks in Hameln, Lower Saxony, Germany

Now
59 °F

Partly sunny.


Feels Like: 58 °F
Forecast: 46 / 61 °F
Wind: 8 mph from West

Location: Bueckeburg

Current Time: Sep 23, 2014 at 7:17:24 PM

Latest Report: Sep 23, 2014 at 6:20 PM


Visibility: N/A

Pressure: 30.07 "Hg

Humidity: 63%

Dew point: 46 °F

Location of HamelnLocation

Historic Weather in Hameln — Graph

°F

Hameln temperature yesterday

Maximum temperature yesterday: 57 °F (at 3:20 PM)
Minimum temperature yesterday: 45 °F (at 11:01 AM)
Average temperature yesterday: 54 °F

Past Weeks' High & Low Weather Summary

 TemperatureHumidityPressure
High79 °F (Sep 18, 4:20 PM)100% (Sep 11, 4:20 AM)30.24 "Hg (Sep 11, 4:20 AM)
Low43 °F (Sep 23, 6:20 AM)50% (Sep 17, 3:20 PM)29.86 "Hg (Sep 18, 1:20 PM)
Average61 °F82%30.04 "Hg
* Reported Sep 8 5:20 PM — Sep 23 5:20 PM, Hameln, Weather by CustomWeather, © 2014

Note: Actual official high and low records may vary slightly from our data, if they occured in-between our weather recording intervals... More about our weather records

Advertising

Hameln weather history for previous 24 hours

 ConditionsComfort  
Time TempWeatherWind HumidityBarometerVisibility
5:20 PM
Sep 23
59 °FScattered clouds.6 mph59%30.07 "HgN/A
4:20 PM61 °FScattered clouds.8 mph55%30.09 "HgN/A
3:20 PM59 °FScattered clouds.8 mph59%30.09 "HgN/A
2:20 PM59 °FPartly sunny.6 mph59%30.12 "HgN/A
1:20 PM59 °FScattered clouds.5 mph59%30.12 "HgN/A
12:20 PM57 °FScattered clouds.5 mph67%30.15 "HgN/A
11:20 AM55 °FPassing clouds.6 mph72%30.15 "HgN/A
10:20 AM54 °FPartly sunny.6 mph72%30.15 "HgN/A
9:20 AM50 °FCool.N/A82%30.15 "HgN/A
8:20 AM48 °FPartly sunny.3 mph94%30.12 "HgN/A
7:20 AM45 °FPassing clouds.5 mph93%30.12 "HgN/A
6:20 AM43 °FPassing clouds.3 mph93%30.12 "HgN/A
5:20 AM46 °FPassing clouds.2 mph93%30.12 "HgN/A
4:20 AM50 °FPassing clouds.2 mph88%30.12 "HgN/A
3:20 AM50 °FPartly cloudy.6 mph82%30.12 "HgN/A
2:20 AM52 °FPassing clouds.5 mph82%30.12 "HgN/A
1:20 AM52 °FPassing clouds.7 mph77%30.12 "HgN/A
12:20 AM54 °FPassing clouds.8 mph72%30.09 "HgN/A
11:20 PM
Sep 22
54 °FPassing clouds.9 mph72%30.09 "HgN/A
10:20 PM54 °FPassing clouds.8 mph72%30.09 "HgN/A
9:20 PM55 °FPassing clouds.8 mph63%30.09 "HgN/A
8:20 PM55 °FPartly sunny.9 mph63%30.07 "HgN/A
7:20 PM55 °FPartly sunny.7 mph63%30.07 "HgN/A
7:02 PM55 °FScattered clouds.9 mph63%30.04 "HgN/A
Weather by CustomWeather, © 2014

See weather overviewHow to use our weather pages